KOREASAT 116

Last updated on Wed Nov 20 2024 00:02:43 GMT+0000 (Coordinated Universal Time)

1 45920U 20048A 24323.77132840 -.00000360 00000+0 00000+0 0 9998 2 45920 0.0172 22.8177 0001262 226.4985 202.8894 1.00270198 15878
UTC large
Height (km)
Speed (km/s)
/
Latitude / Longitude
Inclination (degrees)
Orbital Period (minutes)
Azimuth
Elevation
Range (km)
Doppler Factor

Next 0 passes for location: London (51.5072 / 0.1276)

Sorry there are no passes over London.